Location: Corralito
(10.2667°N, 66.9500°W)
Time: 23:16:12
(UTC+00:00)

YAOGAN 3 - Pass Details

Date: 10 December 2023
Orbit: 615 x 616 km, 97.9° (Epoch: 01 March)

Event Time Altitude Azimuth Distance (km) Brightness Sun altitude
Rises 22:35:44 0° 136° (SE) 2,873 7.8 -7.4°
Reaches altitude 10° 22:38:36 10° 115° (ESE) 1,968 6.7 -8.1°
Maximum altitude 22:41:18 17° 76° (ENE) 1,584 6.0 -8.7°
Drops below altitude 10° 22:44:00 10° 36° (NE) 1,967 6.6 -9.3°
Sets 22:46:51 0° 16° (NNE) 2,872 7.6 -9.9°
